| time (UTC) | temp C | wind direction | speed KPH | gust KPH | rain 1hr cm | rain 24hr cm | rain mn cm | humidity % | barometer mb |
| 20260902033458 | 23 | 228 | 0.0 | 0.0 | 0.00 | 0.00 | 0.00 | 89 | 1012.8 |
| 20260902032958 | 23 | 228 | 0.0 | 1.6 | 0.00 | 0.00 | 0.00 | 88 | 1012.8 |
| 20260902032458 | 23 | 228 | 0.0 | 1.6 | 0.00 | 0.00 | 0.00 | 88 | 1012.8 |
| 20260902031958 | 23 | 228 | 0.0 | 0.0 | 0.00 | 0.00 | 0.00 | 88 | 1012.8 |
| 20260902031458 | 23 | 228 | 0.0 | 0.0 | 0.00 | 0.00 | 0.00 | 88 | 1012.9 |
| 20260902030958 | 23 | 228 | 0.0 | 0.0 | 0.00 | 0.00 | 0.00 | 88 | 1013.1 |
| 20260902030458 | 23 | 228 | 0.0 | 0.0 | 0.00 | 0.00 | 0.00 | 88 | 1013.2 |
| 20260902022959 | 24 | 228 | 0.0 | 3.2 | 0.00 | 0.00 | 0.00 | 88 | 1012.9 |
| 20260902022458 | 24 | 239 | 0.0 | 0.0 | 0.00 | 0.00 | 0.00 | 87 | 1013.0 |
| 20260902021958 | 24 | 239 | 0.0 | 0.0 | 0.00 | 0.00 | 0.00 | 87 | 1012.9 |
| 20260902021459 | 24 | 239 | 0.0 | 0.0 | 0.00 | 0.00 | 0.00 | 87 | 1012.8 |
| 20260902020959 | 24 | 239 | 0.0 | 0.0 | 0.00 | 0.00 | 0.00 | 87 | 1013.1 |
| 20260902020459 | 24 | 239 | 0.0 | 0.0 | 0.00 | 0.00 | 0.00 | 87 | 1012.9 |
| 20260902020001 | 25 | 239 | 0.0 | 0.0 | 0.00 | 0.00 | 0.00 | 88 | 1012.8 |
| 20260902015459 | 25 | 239 | 0.0 | 1.6 | 0.00 | 0.00 | 0.00 | 87 | 1012.9 |
| 20260902014959 | 25 | 239 | 0.0 | 1.6 | 0.00 | 0.00 | 0.00 | 87 | 1012.9 |
| 20260902014459 | 25 | 239 | 0.0 | 1.6 | 0.00 | 0.00 | 0.00 | 85 | 1013.0 |
| 20260902013959 | 25 | 239 | 0.0 | 0.0 | 0.00 | 0.00 | 0.00 | 85 | 1012.9 |
| 20260902013500 | 25 | 239 | 0.0 | 0.0 | 0.00 | 0.00 | 0.00 | 85 | 1013.0 |
| 20260902012959 | 25 | 239 | 0.0 | 0.0 | 0.00 | 0.00 | 0.00 | 85 | 1013.0 |
| 20260902012459 | 25 | 239 | 0.0 | 0.0 | 0.00 | 0.00 | 0.00 | 84 | 1012.9 |
| 20260902011959 | 25 | 239 | 0.0 | 0.0 | 0.00 | 0.00 | 0.00 | 84 | 1012.9 |
| 20260902011459 | 25 | 238 | 0.0 | 0.0 | 0.00 | 0.00 | 0.00 | 84 | 1012.7 |
| 20260902010959 | 26 | 239 | 0.0 | 0.0 | 0.00 | 0.00 | 0.00 | 84 | 1012.5 |
| 20260902010459 | 26 | 238 | 0.0 | 0.0 | 0.00 | 0.00 | 0.00 | 84 | 1012.4 |
| 20260902010001 | 26 | 239 | 0.0 | 3.2 | 0.00 | 0.00 | 0.00 | 84 | 1012.3 |
| 20260902005459 | 26 | 238 | 0.0 | 3.2 | 0.00 | 0.00 | 0.00 | 84 | 1012.2 |
| 20260902004959 | 26 | 282 | 0.0 | 0.0 | 0.00 | 0.00 | 0.00 | 85 | 1012.2 |
| 20260902004459 | 26 | 282 | 0.0 | 1.6 | 0.00 | 0.00 | 0.00 | 84 | 1012.3 |
| 20260902003959 | 26 | 288 | 0.0 | 4.8 | 0.00 | 0.00 | 0.00 | 84 | 1012.3 |
| 20260902003459 | 26 | 215 | 0.0 | 1.6 | 0.00 | 0.00 | 0.00 | 84 | 1012.4 |
| 20260902002959 | 26 | 250 | 0.0 | 1.6 | 0.00 | 0.00 | 0.00 | 84 | 1012.4 |
| 20260902002459 | 27 | 197 | 0.0 | 6.4 | 0.00 | 0.00 | 0.00 | 84 | 1012.5 |
| 20260902001959 | 27 | 174 | 0.0 | 6.4 | 0.00 | 0.00 | 0.00 | 84 | 1012.5 |
| 20260902001459 | 27 | 213 | 0.0 | 1.6 | 0.00 | 0.00 | 0.00 | 84 | 1012.7 |
| 20260902000959 | 27 | 198 | 0.0 | 4.8 | 0.00 | 0.00 | 0.00 | 84 | 1012.8 |
| 20260902000459 | 27 | 163 | 0.0 | 6.4 | 0.00 | 0.00 | 0.00 | 84 | 1012.8 |
| 20260902000001 | 27 | 280 | 0.0 | 6.4 | 0.00 | 0.00 | 0.00 | 84 | 1012.9 |
| 20260901235459 | 27 | 241 | 0.0 | 9.7 | 0.00 | 0.00 | 0.00 | 84 | 1013.0 |
| 20260901234959 | 27 | 203 | 0.0 | 9.7 | 0.00 | 0.00 | 0.00 | 84 | 1012.9 |
| 20260901234500 | 27 | 296 | 0.0 | 3.2 | 0.00 | 0.00 | 0.00 | 84 | 1012.9 |
| 20260901233959 | 27 | 214 | 0.0 | 3.2 | 0.00 | 0.00 | 0.00 | 84 | 1012.8 |
| 20260901233459 | 27 | 203 | 0.0 | 4.8 | 0.00 | 0.00 | 0.00 | 84 | 1013.0 |
| 20260901232959 | 27 | 200 | 1.6 | 4.8 | 0.00 | 0.00 | 0.00 | 84 | 1013.2 |
| 20260901232500 | 27 | 276 | 0.0 | 4.8 | 0.00 | 0.00 | 0.00 | 84 | 1013.0 |
| 20260901231959 | 27 | 300 | 1.6 | 4.8 | 0.00 | 0.00 | 0.00 | 83 | 1013.0 |
| 20260901231459 | 27 | 290 | 0.0 | 4.8 | 0.00 | 0.00 | 0.00 | 82 | 1012.9 |
| 20260901231000 | 27 | 286 | 0.0 | 8.0 | 0.00 | 0.00 | 0.00 | 82 | 1013.0 |
| 20260901230459 | 27 | 220 | 1.6 | 8.0 | 0.00 | 0.00 | 0.00 | 82 | 1012.9 |
| 20260901230001 | 27 | 271 | 1.6 | 12.9 | 0.00 | 0.00 | 0.00 | 82 | 1012.8 |
| 20260901225459 | 28 | 190 | 1.6 | 12.9 | 0.00 | 0.00 | 0.00 | 82 | 1012.9 |
| 20260901224959 | 28 | 271 | 0.0 | 8.0 | 0.00 | 0.00 | 0.00 | 82 | 1012.8 |
| 20260901224459 | 28 | 280 | 0.0 | 8.0 | 0.00 | 0.00 | 0.00 | 83 | 1012.8 |
| 20260901223959 | 28 | 234 | 1.6 | 8.0 | 0.00 | 0.00 | 0.00 | 82 | 1012.9 |
| 20260901223459 | 28 | 251 | 0.0 | 6.4 | 0.00 | 0.00 | 0.00 | 83 | 1012.8 |
| 20260901222959 | 28 | 214 | 1.6 | 8.0 | 0.00 | 0.00 | 0.00 | 83 | 1012.9 |
| 20260901222459 | 28 | 201 | 1.6 | 9.7 | 0.00 | 0.00 | 0.00 | 83 | 1013.0 |
| 20260901221959 | 28 | 286 | 1.6 | 6.4 | 0.00 | 0.00 | 0.00 | 83 | 1013.1 |
| 20260901221459 | 28 | 331 | 1.6 | 12.9 | 0.00 | 0.00 | 0.00 | 83 | 1013.2 |
| 20260901220959 | 28 | 221 | 4.8 | 17.7 | 0.00 | 0.00 | 0.00 | 81 | 1013.3 |
| 20260901220459 | 29 | 223 | 4.8 | 17.7 | 0.00 | 0.00 | 0.00 | 80 | 1013.2 |
| 20260901220001 | 30 | 307 | 3.2 | 12.9 | 0.00 | 0.00 | 0.00 | 80 | 1013.2 |
| 20260901215500 | 30 | 231 | 4.8 | 12.9 | 0.00 | 0.00 | 0.00 | 80 | 1013.1 |
| 20260901214959 | 29 | 349 | 3.2 | 12.9 | 0.00 | 0.00 | 0.00 | 81 | 1013.1 |
| 20260901214459 | 30 | 311 | 3.2 | 12.9 | 0.00 | 0.00 | 0.00 | 78 | 1012.9 |
| 20260901213959 | 30 | 266 | 3.2 | 11.3 | 0.00 | 0.00 | 0.00 | 79 | 1013.0 |
| 20260901213459 | 30 | 207 | 4.8 | 12.9 | 0.00 | 0.00 | 0.00 | 78 | 1012.7 |
| 20260901212959 | 30 | 349 | 3.2 | 14.5 | 0.00 | 0.00 | 0.00 | 80 | 1012.7 |
| 20260901212459 | 30 | 230 | 4.8 | 22.5 | 0.00 | 0.00 | 0.00 | 78 | 1012.6 |
| 20260901212000 | 30 | 295 | 6.4 | 22.5 | 0.00 | 0.00 | 0.00 | 77 | 1012.7 |
| 20260901211458 | 30 | 301 | 3.2 | 16.1 | 0.00 | 0.00 | 0.00 | 78 | 1012.6 |
| 20260901210958 | 30 | 216 | 3.2 | 16.1 | 0.00 | 0.00 | 0.00 | 79 | 1012.5 |
| 20260901210458 | 30 | 303 | 4.8 | 16.1 | 0.00 | 0.00 | 0.00 | 78 | 1012.5 |
| 20260901205959 | 31 | 246 | 3.2 | 17.7 | 0.00 | 0.00 | 0.00 | 79 | 1012.5 |
| 20260901205500 | 30 | 232 | 3.2 | 17.7 | 0.00 | 0.00 | 0.00 | 80 | 1012.5 |
| 20260901204959 | 30 | 190 | 6.4 | 14.5 | 0.00 | 0.00 | 0.00 | 80 | 1012.5 |
| 20260901204459 | 30 | 242 | 3.2 | 14.5 | 0.00 | 0.00 | 0.00 | 80 | 1012.7 |
| 20260901193959 | 30 | 345 | 4.8 | 12.9 | 0.00 | 0.00 | 0.00 | 82 | 1012.8 |
| 20260901193459 | 30 | 213 | 3.2 | 12.9 | 0.00 | 0.00 | 0.00 | 83 | 1012.9 |
| 20260901192959 | 29 | 248 | 1.6 | 9.7 | 0.00 | 0.00 | 0.00 | 83 | 1012.9 |
| 20260901192459 | 29 | 315 | 3.2 | 9.7 | 0.00 | 0.00 | 0.00 | 83 | 1012.9 |
| 20260901191959 | 30 | 291 | 3.2 | 8.0 | 0.00 | 0.00 | 0.00 | 82 | 1013.0 |
| 20260901191459 | 30 | 138 | 1.6 | 11.3 | 0.00 | 0.00 | 0.00 | 82 | 1012.9 |
| 20260901190959 | 30 | 230 | 4.8 | 11.3 | 0.00 | 0.00 | 0.00 | 81 | 1013.0 |
| 20260901190459 | 30 | 244 | 3.2 | 8.0 | 0.00 | 0.00 | 0.00 | 80 | 1013.0 |
| 20260901190000 | 30 | 215 | 4.8 | 8.0 | 0.00 | 0.00 | 0.00 | 81 | 1013.0 |
| 20260901185459 | 30 | 313 | 4.8 | 8.0 | 0.00 | 0.00 | 0.00 | 83 | 1012.9 |
| 20260901184958 | 29 | 315 | 1.6 | 6.4 | 0.00 | 0.00 | 0.00 | 84 | 1013.0 |
| 20260901184458 | 29 | 314 | 0.0 | 6.4 | 0.00 | 0.00 | 0.00 | 83 | 1013.0 |
| 20260901183959 | 29 | 266 | 1.6 | 6.4 | 0.00 | 0.00 | 0.00 | 83 | 1013.0 |
| 20260901183458 | 29 | 247 | 1.6 | 6.4 | 0.00 | 0.00 | 0.00 | 83 | 1013.0 |
| 20260901182959 | 29 | 238 | 1.6 | 11.3 | 0.00 | 0.00 | 0.00 | 83 | 1013.0 |
| 20260901182459 | 29 | 212 | 3.2 | 11.3 | 0.00 | 0.00 | 0.00 | 82 | 1013.1 |
| 20260901181959 | 30 | 226 | 3.2 | 9.7 | 0.00 | 0.00 | 0.00 | 80 | 1013.1 |
| 20260901181459 | 30 | 271 | 4.8 | 12.9 | 0.00 | 0.00 | 0.00 | 80 | 1013.1 |
| 20260901180959 | 30 | 266 | 4.8 | 12.9 | 0.00 | 0.00 | 0.00 | 81 | 1013.1 |
| 20260901180458 | 30 | 250 | 4.8 | 11.3 | 0.00 | 0.00 | 0.00 | 81 | 1013.0 |
| 20260901180001 | 30 | 335 | 3.2 | 8.0 | 0.00 | 0.00 | 0.00 | 81 | 1013.0 |
| 20260901175459 | 30 | 216 | 3.2 | 6.4 | 0.00 | 0.00 | 0.00 | 82 | 1013.2 |
| 20260901174959 | 29 | 342 | 1.6 | 11.3 | 0.00 | 0.00 | 0.00 | 83 | 1013.2 |
| 20260901174459 | 29 | 250 | 4.8 | 11.3 | 0.00 | 0.00 | 0.00 | 82 | 1013.3 |
| 20260901174000 | 29 | 177 | 3.2 | 12.9 | 0.00 | 0.00 | 0.00 | 81 | 1013.3 |
| 20260901173459 | 30 | 230 | 6.4 | 11.3 | 0.00 | 0.00 | 0.00 | 82 | 1013.3 |
| 20260901172959 | 30 | 309 | 3.2 | 9.7 | 0.00 | 0.00 | 0.00 | 80 | 1013.3 |
| 20260901161500 | 28 | 240 | 1.6 | 3.2 | 0.00 | 0.00 | 0.00 | 84 | 1013.4 |
| 20260901160959 | 28 | 174 | 1.6 | 4.8 | 0.00 | 0.00 | 0.00 | 84 | 1013.4 |
| 20260901160459 | 27 | 212 | 0.0 | 3.2 | 0.00 | 0.00 | 0.00 | 84 | 1013.4 |
| 20260901160000 | 27 | 228 | 1.6 | 6.4 | 0.00 | 0.00 | 0.00 | 84 | 1013.3 |
| 20260901155459 | 28 | 200 | 0.0 | 6.4 | 0.00 | 0.00 | 0.00 | 82 | 1013.4 |
| 20260901154959 | 28 | 315 | 0.0 | 1.6 | 0.00 | 0.00 | 0.00 | 82 | 1013.4 |
| 20260901154459 | 28 | 266 | 0.0 | 3.2 | 0.00 | 0.00 | 0.00 | 84 | 1013.4 |
| 20260901150959 | 27 | 239 | 1.6 | 4.8 | 0.00 | 0.00 | 0.00 | 84 | 1013.4 |
| 20260901150459 | 27 | 230 | 1.6 | 9.7 | 0.00 | 0.00 | 0.00 | 85 | 1013.5 |
| 20260901150001 | 27 | 225 | 1.6 | 9.7 | 0.00 | 0.23 | 0.00 | 85 | 1013.6 |
| 20260901145459 | 27 | 336 | 3.2 | 6.4 | 0.00 | 0.23 | 0.00 | 84 | 1013.6 |
| 20260901144959 | 27 | 232 | 1.6 | 6.4 | 0.00 | 0.23 | 0.00 | 86 | 1013.5 |
| 20260901144459 | 26 | 199 | 1.6 | 6.4 | 0.00 | 0.23 | 0.00 | 85 | 1013.5 |
| 20260901143959 | 26 | 324 | 1.6 | 6.4 | 0.00 | 0.23 | 0.00 | 87 | 1013.6 |
| 20260901143458 | 26 | 281 | 1.6 | 6.4 | 0.00 | 0.23 | 0.00 | 86 | 1013.5 |
| 20260901142959 | 26 | 226 | 1.6 | 8.0 | 0.00 | 0.23 | 0.00 | 85 | 1013.5 |
| 20260901142500 | 27 | 232 | 3.2 | 8.0 | 0.00 | 0.23 | 0.00 | 85 | 1013.5 |
| 20260901141959 | 26 | 320 | 3.2 | 12.9 | 0.00 | 0.23 | 0.00 | 86 | 1013.4 |
| 20260901141459 | 26 | 196 | 3.2 | 12.9 | 0.00 | 0.23 | 0.00 | 86 | 1013.5 |
| 20260901140959 | 26 | 219 | 3.2 | 8.0 | 0.00 | 0.23 | 0.00 | 87 | 1013.5 |
| 20260901140500 | 26 | 295 | 3.2 | 6.4 | 0.00 | 0.23 | 0.00 | 87 | 1013.6 |
| 20260901135959 | 25 | 314 | 3.2 | 6.4 | 0.00 | 0.28 | 0.00 | 87 | 1013.4 |
| 20260901135459 | 25 | 319 | 3.2 | 4.8 | 0.00 | 0.28 | 0.00 | 88 | 1013.3 |
| 20260901134959 | 25 | 287 | 1.6 | 8.0 | 0.00 | 0.28 | 0.00 | 89 | 1013.3 |
| 20260901134500 | 25 | 234 | 0.0 | 8.0 | 0.00 | 0.28 | 0.00 | 90 | 1013.4 |
| 20260901133959 | 24 | 205 | 3.2 | 4.8 | 0.00 | 0.28 | 0.00 | 90 | 1013.5 |
| 20260901133459 | 24 | 226 | 3.2 | 4.8 | 0.00 | 0.28 | 0.00 | 91 | 1013.5 |
| 20260901132959 | 24 | 222 | 1.6 | 8.0 | 0.00 | 0.28 | 0.00 | 91 | 1013.5 |
| 20260901132459 | 23 | 223 | 3.2 | 8.0 | 0.00 | 0.28 | 0.00 | 91 | 1013.5 |
| 20260901131959 | 23 | 197 | 3.2 | 6.4 | 0.00 | 0.28 | 0.00 | 92 | 1013.5 |
| 20260901131459 | 23 | 221 | 1.6 | 6.4 | 0.00 | 0.28 | 0.00 | 92 | 1013.5 |
| 20260901130959 | 23 | 199 | 1.6 | 9.7 | 0.00 | 0.28 | 0.00 | 92 | 1013.5 |
| 20260901130459 | 23 | 241 | 1.6 | 9.7 | 0.00 | 0.28 | 0.00 | 92 | 1013.3 |
| 20260901130002 | 22 | 233 | 3.2 | 6.4 | 0.00 | 0.28 | 0.00 | 92 | 1013.4 |
| 20260901125458 | 22 | 225 | 1.6 | 4.8 | 0.00 | 0.28 | 0.00 | 92 | 1013.5 |
| 20260901124959 | 21 | 223 | 1.6 | 4.8 | 0.00 | 0.28 | 0.00 | 92 | 1013.5 |
| 20260901124459 | 21 | 199 | 1.6 | 3.2 | 0.00 | 0.28 | 0.00 | 92 | 1013.6 |
| 20260901123958 | 20 | 276 | 0.0 | 1.6 | 0.00 | 0.28 | 0.00 | 92 | 1013.4 |
| 20260901123459 | 20 | 276 | 0.0 | 1.6 | 0.00 | 0.28 | 0.00 | 92 | 1013.5 |
| 20260901122959 | 20 | 276 | 0.0 | 0.0 | 0.00 | 0.28 | 0.00 | 91 | 1013.3 |
| 20260901122459 | 20 | 276 | 0.0 | 0.0 | 0.00 | 0.28 | 0.00 | 91 | 1013.5 |
| 20260901121959 | 20 | 276 | 0.0 | 0.0 | 0.00 | 0.28 | 0.00 | 91 | 1013.5 |
| 20260901121458 | 20 | 276 | 0.0 | 0.0 | 0.00 | 0.28 | 0.00 | 91 | 1013.4 |
| 20260901120958 | 19 | 276 | 0.0 | 0.0 | 0.00 | 0.28 | 0.00 | 91 | 1013.3 |
| 20260901120459 | 19 | 276 | 0.0 | 0.0 | 0.00 | 0.28 | 0.00 | 91 | 1013.1 |
| 20260901120000 | 19 | 276 | 0.0 | 0.0 | 0.00 | 0.28 | 0.00 | 91 | 1013.0 |
| 20260901115459 | 19 | 276 | 0.0 | 0.0 | 0.00 | 0.28 | 0.00 | 91 | 1013.0 |
| 20260901114959 | 19 | 276 | 0.0 | 0.0 | 0.00 | 0.28 | 0.00 | 91 | 1013.0 |
| 20260901114459 | 19 | 276 | 0.0 | 0.0 | 0.00 | 0.28 | 0.00 | 91 | 1012.9 |
| 20260901113958 | 19 | 276 | 0.0 | 0.0 | 0.00 | 0.28 | 0.00 | 91 | 1012.8 |
| 20260901113500 | 19 | 276 | 0.0 | 0.0 | 0.00 | 0.28 | 0.00 | 91 | 1012.7 |
| 20260901112958 | 19 | 276 | 0.0 | 0.0 | 0.00 | 0.28 | 0.00 | 91 | 1012.6 |
| 20260901112459 | 19 | 276 | 0.0 | 0.0 | 0.00 | 0.28 | 0.00 | 91 | 1012.7 |
| 20260901111959 | 19 | 276 | 0.0 | 0.0 | 0.00 | 0.28 | 0.00 | 91 | 1012.6 |
| 20260901111459 | 19 | 276 | 0.0 | 0.0 | 0.00 | 0.28 | 0.00 | 91 | 1012.6 |
| 20260901110959 | 19 | 276 | 0.0 | 0.0 | 0.00 | 0.28 | 0.00 | 91 | 1012.6 |
| 20260901110459 | 20 | 276 | 0.0 | 0.0 | 0.00 | 0.28 | 0.00 | 90 | 1012.6 |
| 20260901105959 | 20 | 276 | 0.0 | 0.0 | 0.00 | 0.28 | 0.00 | 90 | 1012.5 |
| 20260901105459 | 20 | 276 | 0.0 | 0.0 | 0.00 | 0.28 | 0.00 | 90 | 1012.5 |
| 20260901104959 | 20 | 276 | 0.0 | 0.0 | 0.00 | 0.28 | 0.00 | 90 | 1012.5 |
| 20260901104458 | 20 | 276 | 0.0 | 0.0 | 0.00 | 0.28 | 0.00 | 90 | 1012.4 |
| 20260901103958 | 20 | 276 | 0.0 | 0.0 | 0.00 | 0.28 | 0.00 | 90 | 1012.4 |
| 20260901103459 | 20 | 276 | 0.0 | 0.0 | 0.00 | 0.28 | 0.00 | 90 | 1012.4 |
| 20260901102959 | 20 | 276 | 0.0 | 0.0 | 0.00 | 0.28 | 0.00 | 90 | 1012.5 |
| 20260901102458 | 20 | 276 | 0.0 | 0.0 | 0.00 | 0.28 | 0.00 | 90 | 1012.5 |
| 20260901101959 | 20 | 276 | 0.0 | 0.0 | 0.00 | 0.28 | 0.00 | 90 | 1012.5 |
| 20260901101458 | 20 | 276 | 0.0 | 1.6 | 0.00 | 0.28 | 0.00 | 90 | 1012.5 |
| 20260901100959 | 20 | 276 | 0.0 | 1.6 | 0.00 | 0.28 | 0.00 | 91 | 1012.5 |
| 20260901100458 | 20 | 276 | 0.0 | 0.0 | 0.00 | 0.28 | 0.00 | 90 | 1012.5 |
| 20260901100001 | 20 | 276 | 0.0 | 0.0 | 0.00 | 0.28 | 0.00 | 90 | 1012.5 |
| 20260901095459 | 20 | 276 | 0.0 | 0.0 | 0.00 | 0.28 | 0.00 | 90 | 1012.5 |
| 20260901094959 | 20 | 276 | 0.0 | 0.0 | 0.00 | 0.28 | 0.00 | 90 | 1012.4 |
| 20260901094459 | 20 | 276 | 0.0 | 0.0 | 0.00 | 0.28 | 0.00 | 90 | 1012.3 |
| 20260901093959 | 20 | 276 | 0.0 | 0.0 | 0.00 | 0.28 | 0.00 | 90 | 1012.4 |
| 20260901093459 | 20 | 276 | 0.0 | 0.0 | 0.00 | 0.28 | 0.00 | 90 | 1012.4 |
| 20260901092959 | 20 | 276 | 0.0 | 0.0 | 0.00 | 0.28 | 0.00 | 90 | 1012.4 |
| 20260901092458 | 20 | 276 | 0.0 | 0.0 | 0.00 | 0.28 | 0.00 | 90 | 1012.4 |
| 20260901091958 | 20 | 276 | 0.0 | 0.0 | 0.00 | 0.28 | 0.00 | 90 | 1012.4 |
| 20260901091458 | 20 | 276 | 0.0 | 0.0 | 0.00 | 0.28 | 0.00 | 90 | 1012.4 |
| 20260901090958 | 21 | 276 | 0.0 | 0.0 | 0.00 | 0.28 | 0.00 | 90 | 1012.4 |
| 20260901090459 | 21 | 276 | 0.0 | 0.0 | 0.00 | 0.28 | 0.00 | 90 | 1012.4 |
| 20260901090000 | 21 | 276 | 0.0 | 0.0 | 0.00 | 0.28 | 0.00 | 90 | 1012.4 |
| 20260901085459 | 21 | 276 | 0.0 | 0.0 | 0.00 | 0.28 | 0.00 | 90 | 1012.4 |
| 20260901084959 | 21 | 276 | 0.0 | 0.0 | 0.00 | 0.28 | 0.00 | 90 | 1012.4 |
| 20260901084458 | 21 | 276 | 0.0 | 0.0 | 0.00 | 0.28 | 0.00 | 90 | 1012.3 |
| 20260901083959 | 21 | 276 | 0.0 | 0.0 | 0.00 | 0.28 | 0.00 | 90 | 1012.4 |
| 20260901083458 | 21 | 276 | 0.0 | 0.0 | 0.00 | 0.28 | 0.00 | 90 | 1012.4 |
| 20260901082959 | 21 | 276 | 0.0 | 0.0 | 0.00 | 0.28 | 0.00 | 90 | 1012.4 |
| 20260901082458 | 21 | 276 | 0.0 | 0.0 | 0.00 | 0.28 | 0.00 | 90 | 1012.4 |
| 20260901081958 | 21 | 276 | 0.0 | 0.0 | 0.00 | 0.28 | 0.00 | 90 | 1012.4 |
| 20260901081458 | 21 | 276 | 0.0 | 0.0 | 0.00 | 0.28 | 0.00 | 90 | 1012.5 |
| 20260901080958 | 21 | 276 | 0.0 | 0.0 | 0.00 | 0.28 | 0.00 | 90 | 1012.3 |
| 20260901080458 | 21 | 276 | 0.0 | 0.0 | 0.00 | 0.28 | 0.00 | 90 | 1012.3 |
| 20260901075958 | 21 | 276 | 0.0 | 0.0 | 0.00 | 0.28 | 0.00 | 90 | 1012.3 |
| 20260901075459 | 21 | 276 | 0.0 | 0.0 | 0.00 | 0.28 | 0.00 | 90 | 1012.3 |
| 20260901074958 | 21 | 276 | 0.0 | 0.0 | 0.00 | 0.28 | 0.00 | 89 | 1012.2 |
| 20260901063958 | 21 | 303 | 0.0 | 0.0 | 0.00 | 0.28 | 0.00 | 88 | 1012.1 |
| 20260901063458 | 21 | 303 | 0.0 | 0.0 | 0.00 | 0.28 | 0.00 | 88 | 1012.3 |
| 20260901062958 | 21 | 303 | 0.0 | 0.0 | 0.00 | 0.28 | 0.00 | 88 | 1012.2 |
| 20260901062458 | 21 | 303 | 0.0 | 0.0 | 0.00 | 0.28 | 0.00 | 88 | 1012.2 |
| 20260901061958 | 21 | 303 | 0.0 | 0.0 | 0.00 | 0.28 | 0.00 | 88 | 1012.2 |
| 20260901061458 | 21 | 303 | 0.0 | 0.0 | 0.00 | 0.28 | 0.00 | 88 | 1012.2 |
| 20260901060959 | 21 | 303 | 0.0 | 0.0 | 0.00 | 0.28 | 0.00 | 88 | 1012.2 |
| 20260901053459 | 22 | 303 | 0.0 | 1.6 | 0.00 | 0.28 | 0.00 | 88 | 1012.5 |
| 20260901052958 | 22 | 320 | 0.0 | 0.0 | 0.00 | 0.28 | 0.00 | 88 | 1012.5 |
| 20260901052459 | 22 | 320 | 0.0 | 3.2 | 0.00 | 0.28 | 0.00 | 88 | 1012.5 |
| 20260901052000 | 22 | 320 | 0.0 | 3.2 | 0.00 | 0.28 | 0.00 | 88 | 1012.4 |
| 20260901051458 | 22 | 299 | 0.0 | 1.6 | 0.00 | 0.28 | 0.00 | 87 | 1012.5 |
| 20260901050958 | 22 | 299 | 0.0 | 1.6 | 0.00 | 0.28 | 0.00 | 87 | 1012.4 |
| 20260901050458 | 22 | 299 | 0.0 | 1.6 | 0.00 | 0.28 | 0.00 | 87 | 1012.4 |
| 20260901045959 | 22 | 299 | 0.0 | 1.6 | 0.00 | 0.28 | 0.00 | 86 | 1012.4 |
| 20260901045459 | 22 | 299 | 0.0 | 0.0 | 0.00 | 0.28 | 0.00 | 86 | 1012.5 |
| 20260901044958 | 22 | 299 | 0.0 | 0.0 | 0.00 | 0.28 | 0.00 | 86 | 1012.5 |
| 20260901044459 | 22 | 299 | 0.0 | 0.0 | 0.00 | 0.28 | 0.00 | 86 | 1012.4 |
| 20260901043959 | 22 | 299 | 0.0 | 0.0 | 0.00 | 0.28 | 0.00 | 86 | 1012.4 |
| 20260901043458 | 22 | 299 | 0.0 | 0.0 | 0.00 | 0.28 | 0.00 | 86 | 1012.4 |
| 20260901042959 | 22 | 299 | 0.0 | 0.0 | 0.00 | 0.28 | 0.00 | 86 | 1012.4 |
| 20260901042459 | 22 | 299 | 0.0 | 0.0 | 0.00 | 0.28 | 0.00 | 86 | 1012.4 |
| 20260901041958 | 23 | 299 | 0.0 | 0.0 | 0.00 | 0.28 | 0.00 | 86 | 1012.5 |
| 20260901041459 | 23 | 299 | 0.0 | 0.0 | 0.00 | 0.28 | 0.00 | 86 | 1012.5 |
| 20260901040959 | 23 | 299 | 0.0 | 1.6 | 0.00 | 0.28 | 0.00 | 86 | 1012.5 |
| 20260901040459 | 23 | 299 | 0.0 | 1.6 | 0.00 | 0.28 | 0.00 | 86 | 1012.6 |